Location: Strawberry
(45.6646°N, 111.9596°W)
Time: 20:12:25
(UTC+00:00)

Vanguard 1 Rocket - Pass Details

Date: 05 October 2022
Orbit: 650 x 4225 km, 34.3° (Epoch: 01 December)

Event Time Altitude Azimuth Distance (km) Brightness Sun altitude
Rises 22:56:14 0° 191° (S) 8,366 12.9 19.7°
Reaches altitude 10° 23:04:44 10° 178° (S) 7,419 12.4 18.4°
Maximum altitude 23:20:26 21° 140° (SE) 6,069 11.5 15.9°
Drops below altitude 10° 23:33:12 10° 100° (E) 6,054 11.1 13.9°
Sets 23:38:48 0° 86° (E) 6,515 11.2 13.0°
